Location: Feydey
(46.3431°N, 7.0106°E)
Time: 21:28:59
(UTC+00:00)

NOSS 0 Rocket - Pass Details

Date: 20 June 2021
Orbit: 934 x 956 km, 70.0° (Epoch: 23 July)

Event Time Altitude Azimuth Distance (km) Brightness Sun altitude
Exits shadow 21:18:01 17° 168° (SSE) 2,195 5.3 -13.8°
Maximum altitude 21:22:18 40° 108° (ESE) 1,362 4.4 -14.1°
Drops below altitude 10° 21:28:03 10° 41° (NE) 2,687 6.6 -14.6°
Sets 21:30:44 0° 34° (NE) 3,639 7.4 -14.9°
